Regional Weather Roundup
Issued by NWS

Home | Current Version | Previous Version | Graphics & Text | Print | Product List | Glossary On
Versions: 1 2 3 4 5 6 7 8 9 10 11 12 13 14 15 16 17 18 19 20 21 22 23 24 25 26 27 28 29 30 31 32 33 34 35 36 37 38 39 40 41 42 43 44 45 46 47 48 49 50
000
ASUS45 KSLC 211410
RWRUT

UTAH REGIONAL WEATHER ROUNDUP
NATIONAL WEATHER SERVICE SALT LAKE CITY UT
800 AM MDT MON AUG 21 2017

UTZ001>011-023>025-211500-

NORTHERN UTAH

CITY           SKY/WX    TMP DP  RH WIND       PRES   REMARKS
BRIGHAM CITY   SUNNY     61  39  44 NW7       30.12R
DUGWAY         MOSUNNY   69  39  33 SE7       30.11R
HILL AFB       SUNNY     65  38  36 E17       30.14R
LOGAN          SUNNY     56  47  71 CALM      30.16R
OGDEN          SUNNY     66  39  37 S8        30.11R
SALT LAKE CITY MOSUNNY   72  46  39 E5        30.09R
TOOELE VALLEY  MOSUNNY   72  41  33 S6        30.11R
WENDOVER       MOSUNNY   70  39  32 E3        30.11R
HEBER CITY     SUNNY     54  41  62 CALM      30.22R
WEST JORDAN    MOSUNNY   71  54  55 S7        30.13R

$$

UTZ011>015-024>027-211500-

CENTRAL/NORTHEAST UTAH

CITY           SKY/WX    TMP DP  RH WIND       PRES   REMARKS
PROVO AIRPORT  SUNNY     66  43  43 SE3       30.15R
MOAB/CANYONLAN MOSUNNY   74  45  35 CALM      30.09R
DELTA          SUNNY     64  39  39 SE6       30.15R
PRICE          MOSUNNY   68  39  34 VRB3      30.21R
RICHFIELD      SUNNY     55  52  88 CALM      30.22S
ROOSEVELT      CLOUDY    59  45  58 CALM      30.20R
VERNAL         SUNNY     69  47  45 N3        30.17R

$$

UTZ013>016-019>022-027-211500-

SOUTHERN UTAH

CITY           SKY/WX    TMP DP  RH WIND       PRES   REMARKS
BRYCE CANYON   CLOUDY    60  47  61 W9        30.35F
CEDAR CITY     PTSUNNY   66  46  48 SE7       30.23R
MILFORD        SUNNY     66  48  52 S13       30.17R
ST GEORGE      SUNNY     74  50  42 S3        30.08R
HANKSVILLE     PTSUNNY   73  37  27 CALM      30.12R
KANAB          MOSUNNY   66  52  59 CALM      30.23R
BLANDING       MOSUNNY   63  50  62 CALM      30.31S

$$

REGIONAL REPORTS     COLORADO/ARIZONA

CITY           SKY/WX    TMP DP  RH WIND       PRES   REMARKS
CRAIG, CO      CLOUDY    50  41  71 CALM      30.28R
GRAND JUNCTION SUNNY     70  39  32 E6        30.14R
RIFLE, CO      SUNNY     61  41  47 CALM      30.21R
MONTROSE, CO   SUNNY     65  43  44 SE7       30.23R
CORTEZ, CO     SUNNY     61  51  70 CALM      30.26R
COLORADO CITY  LGT RAIN  63  59  88 NE6       30.22R
PAGE, AZ       PTSUNNY   76  45  33 SE6       30.12R
GRAND CANYON   CLOUDY    57  55  93 CALM      30.29R
KINGMAN, AZ    CLOUDY    74  54  49 NW8       30.08R
FLAGSTAFF, AZ  CLOUDY    56  52  86 CALM      30.32R

$$

REGIONAL REPORTS    NEVADA/IDAHO/WYOMING

CITY           SKY/WX    TMP DP  RH WIND       PRES   REMARKS
LAS VEGAS, NV  CLOUDY    86  50  28 SW9       29.99R
ELY, NY        SUNNY     54  33  45 S7        30.26R
ELKO, NV       SUNNY     54  35  48 SE3       30.19R
POCATELLO, ID  MOSUNNY   56  33  42 CALM      30.18R
BURLEY, ID     PTSUNNY   55  41  59 CALM      30.14R
FORT BRIDGER,    N/A     61  32  34 W7        30.32R
EVANSTON, WY   SUNNY     56  34  43 SE3       30.30R
ROCK SPRINGS,  SUNNY     59  37  44 CALM      30.28R
KEMMERER, WY     N/A     54  34  47 N12       30.31S

$$



USA.gov is the U.S. government's official web portal to all federal, state and local government web resources and services.